Regional Weather Roundup
Issued by NWS

Home | Current Version | Previous Version | Graphics & Text | Print | Product List | Glossary On
Versions: 1 2 3 4 5 6 7 8 9 10 11 12 13 14 15 16 17 18 19 20 21 22 23 24 25 26 27 28 29 30 31 32 33 34 35 36 37 38 39 40 41 42 43 44 45 46 47 48 49 50
000
ASUS43 KMPX 222101
RWRMN
WEATHER ROUNDUP FOR MINNESOTA
NATIONAL WEATHER SERVICE TWIN CITIES/CHANHASSEN MN
300 PM CST WED FEB 22 2017


NOTE: "FAIR" INDICATES FEW OR NO CLOUDS BELOW 12,000 FEET WITH NO
SIGNIFICANT WEATHER AND/OR OBSTRUCTIONS TO VISIBILITY. N/A MEANS
CURRENT SKY AND/OR WEATHER CONDITIONS ARE NOT AVAILABLE.

MNZ060>063-068>070-222200-
   Twin Cities Metro

CITY           SKY/WX    TMP DP  RH WIND       PRES   REMARKS
TWIN CITIES    PTSUNNY   56  43  61 S3        29.54S
ST PAUL        MOSUNNY   55  45  68 E5        29.54S
CRYSTAL        MOSUNNY   55  42  61 NW5       29.53S
LAKEVILLE      SUNNY     57  45  62 CALM      29.53S
EDEN PRAIRIE   SUNNY     56  44  64 VRB5      29.52S
SOUTH ST PAUL  SUNNY     57  43  59 CALM      29.53S
LAKE ELMO      FAIR      55  45  67 SW6       29.55R
$$
MNZ001>005-007-008-013>017-022>024-027-028-222200-
   Northwest Minnesota

CITY           SKY/WX    TMP DP  RH WIND       PRES   REMARKS
BEMIDJI        LGT SNOW  32  32  98 N10       29.68R WCI  24
HALLOCK        PTSUNNY   36  30  80 N10       29.81S
ROSEAU         CLOUDY    34  27  75 N12       29.78R WCI  25
WARROAD        CLOUDY    34  27  75 N12       29.78R WCI  25
THIEF RVR FALL CLOUDY    33  27  78 N16       29.77R WCI  23
CROOKSTON      CLOUDY    34  28  80 N17       29.79R WCI  23
FOSSTON        LGT SNOW  30  30 100 N17G23    29.72R WCI  18
DETROIT LAKES  LGT SNOW  32  32 100 N9        29.69R WCI  24
MOORHEAD       LGT RAIN  34  32  93 N20       29.74R WCI  22
PARK RAPIDS    SNOW      34  31  88 N12       29.64R VSB 1/2 WCI  25
MAHNOMEN       LGT SNOW  32  32  99 N14       29.71R WCI  22
$$
MNZ006-009>011-018-025>026-222200-
   North Central Minnesota

CITY           SKY/WX    TMP DP  RH WIND       PRES   REMARKS
BAUDETTE       CLOUDY    32  25  75 N14       29.74S WCI  22
FLAG ISLAND    CLOUDY    32  23  69 N9        29.76F WCI  24
INTL FALLS     LGT SNOW  33  30  88 N13G20    29.71R VSB 1   WCI  24
WASKISH        CLOUDY    34  30  86 N9        29.71R WCI  26
BIG FORK       MIX PCPN  36  32  87 N9        29.66S
LONGVILLE      LGT RAIN  37  36  93 N6        29.61R
GRAND RAPIDS   LGT RAIN  38  34  85 N7        29.63S
CRANE LAKE     CLOUDY    36  30  80 N6        29.68F
ORR            CLOUDY    36  28  75 CALM      29.64R
COOK           DRIZZLE   37  32  81 N7        29.65R
WALKER         LGT SNOW  32  32  98 NW8       29.66R VSB 1   WCI  25
$$
MNZ012-019>021-037-222200-
   Northeast Minnesota

CITY           SKY/WX    TMP DP  RH WIND       PRES   REMARKS
DULUTH         CLOUDY    42  35  76 SE7       29.58S
ELY            PTSUNNY   39  32  75 NE6       29.63S
HIBBING        LGT RAIN  38  34  85 N8        29.60F
EVELETH        DRIZZLE   40  32  73 N7        29.62S
DULUTH HARBOR  PTSUNNY   37  36  93 NE5       29.61S
TWO HARBORS    CLOUDY    45  36  70 E7        29.58S
SILVER BAY     CLOUDY    41  34  75 E7        29.58F
GRAND MARAIS     N/A     39  34  82 CALM      29.64R
G MARAIS ARPRT CLOUDY    41  28  60 N7        29.60R
$$
MNZ029>031-032-039>041-046>048-054>057-064-222200-
   West Central Minnesota

CITY           SKY/WX    TMP DP  RH WIND       PRES   REMARKS
FERGUS FALLS   PTSUNNY   36  36 100 N14G22    29.70R
WHEATON        CLOUDY    37  36  93 NW20      29.69R
MORRIS         PTSUNNY   39  37  93 NW16G24   29.63R
ALEXANDRIA     PTSUNNY   43  38  82 N14       29.61R
ELBOW LAKE     CLOUDY    35  35  99 N13       29.65R WCI  26
WADENA         MIX PCPN  36  36 100 N7        29.63S
GLENWOOD       SUNNY     48  41  76 N15       29.60S
APPLETON       MOSUNNY   45  39  81 N14G21    29.63S
BENSON         PTSUNNY   46  36  66 N15G25    29.63R
ORTONVILLE     CLOUDY    41  36  81 N17       29.66R
MADISON        CLOUDY    45  43  93 N15       29.64S
WILLMAR        PTSUNNY   52  45  76 NW14      29.59S
$$
MNZ033>034-036-042>043-049>051-058-059-222200-
   Central Minnesota

CITY           SKY/WX    TMP DP  RH WIND       PRES   REMARKS
ST CLOUD       CLOUDY    54  41  61 CALM      29.56R
SAUK CENTRE    MOCLDY    47  39  75 NW16      29.59R
PAYNESVILLE    MOSUNNY   53  41  65 NW9G16    29.58R
AITKIN         MIX PCPN  45  37  76 N8        29.55S
PINE RIVER     RAIN      36  36 100 NW8       29.65R
BRAINERD       LGT RAIN  41  38  89 W20       29.62R
STAPLES        DRIZZLE   37  37 100 NW17      29.63R
LONG PRAIRIE   CLOUDY    45  37  76 W12       29.61R
LITTLE FALLS   CLOUDY    46  36  66 NW5       29.59R
LITCHFIELD     PTSUNNY   55  46  71 NW8       29.57R
BUFFALO        CLOUDY    46  45  94 CALM      29.55S FOG
MAPLE LAKE     MOSUNNY   52  46  80 CALM      29.56S
HUTCHINSON     PTSUNNY   55  49  82 W12       29.57R
$$
MNZ037-044-045-052-053-222200-
   East Central Minnesota

CITY           SKY/WX    TMP DP  RH WIND       PRES   REMARKS
PRINCETON      PTSUNNY   54  43  66 N5        29.55R
MORA           CLOUDY    52  37  58 NE5       29.55S
CAMBRIDGE      MOSUNNY   54  43  66 CALM      29.53R
RUSH CITY      PTSUNNY   52  43  71 N5        29.54R
MOOSE LAKE     CLOUDY    50  36  57 NE7       29.54S
HINCKLEY       FAIR      52  41  66 N9        29.55R
CLOQUET        CLOUDY    43  34  70 E7        29.58R
MCGREGOR       CLOUDY    43  37  81 N10       29.58F
$$
MNZ071>073-080-081-089-090-097-098-222200-
   Southwest Minnesota

CITY           SKY/WX    TMP DP  RH WIND       PRES   REMARKS
MONTEVIDEO     CLOUDY    46  41  81 N18G24    29.64R
GRANITE FALLS  CLOUDY    50  45  83 W20       29.63R
CANBY          CLOUDY    44  39  83 NW17      29.65R
MARSHALL       SUNNY     49  42  77 NW22G29   29.61R
REDWOOD FALLS  MOSUNNY   54  44  69 NW15G23   29.58R
OLIVIA         CLOUDY    50  43  76 NW14      29.58R
PIPESTONE      SUNNY     55  39  54 NW20G26   29.62R
WINDOM         SUNNY     63  43  48 W18G24    29.57S
WORTHINGTON    SUNNY     61  42  49 W22       29.60S
JACKSON        SUNNY     61  43  51 W17G23    29.59R
TRACY          MOSUNNY   56  49  80 NW18G25   29.60R
SLAYTON        SUNNY     58  42  57 W21G31    29.60S
$$
MNZ065>067-074>077-082>085-091>093-222200-
   South Central Minnesota

CITY           SKY/WX    TMP DP  RH WIND       PRES   REMARKS
MANKATO          N/A     60  47  61 SW6       29.54F
NEW ULM        SUNNY     61  46  59 W15       29.56R
ST JAMES       SUNNY     64  45  48 W12       29.57R
FAIRMONT       SUNNY     63  45  51 W10       29.57S
GLENCOE        SUNNY     57  51  80 W5        29.55R
FARIBAULT      SUNNY     61  46  59 S5        29.55F
OWATONNA       SUNNY     57  43  58 CALM      29.55F
WASECA         SUNNY     55  45  67 CALM      29.57S
ALBERT LEA     SUNNY     59  46  63 NW7       29.56S
$$
MNZ078>079-086>088-094>096-222200-
   Southeast Minnesota

CITY           SKY/WX    TMP DP  RH WIND       PRES   REMARKS
ROCHESTER      MOSUNNY   54  46  74 SW8       29.56R
RED WING       PTSUNNY   57  37  47 CALM      29.53R
STANTON        SUNNY     58  44  60 CALM      29.53S
DODGE CENTER   PTSUNNY   55  45  67 W6        29.55R
WINONA         PTSUNNY   59  39  47 E3        29.53S
AUSTIN         MOSUNNY   55  45  67 SW6       29.56R
PRESTON        SUNNY     56  41  57 SW3       29.55S
$$
ABBREVIATIONS USED IN REMARKS
   TC - TEMPERATURES IN CELSIUS
  WCI - WIND CHILL INDEX
   HX - HEAT INDEX
  VSB - VISIBILITY
$$




USA.gov is the U.S. government's official web portal to all federal, state and local government web resources and services.